This demonstration page uses our WeatherBlox Daily Observations layout. Learn more.

Left ArrowRight Arrow

Hourly Observations for September 10, 2015

Temp ( °F °C ) Dew Point ( °F °C ) Humidity (%) Winds ( mph kmh ) Pressure ( in mb ) Visibility ( mi km ) Precip ( " mm )
12:53 am 00:53 Cloudy 71 21.7 65 18.3 81 81 NNE 7 11 29.91 1013 10 16.0934 0 0
1:53 am 01:53 Cloudy 70 21.1 65 18.3 84 84 NE 3 6 29.91 1013 10 16.0934 0 0
2:53 am 02:53 Cloudy 69 20.6 65 18.3 87 87 N 3 6 29.91 1013 10 16.0934 0 0
3:53 am 03:53 Mostly Cloudy 67 19.4 65 18.3 93 93 Calm 29.9 1013 10 16.0934 0 0
4:53 am 04:53 Mostly Cloudy 68 20 65 18.3 90 90 NNW 3 6 29.9 1013 10 16.0934 0 0
5:53 am 05:53 Mostly Clear 68 20 64 17.8 87 87 NNE 5 7 29.9 1012 10 16.0934 0 0
6:53 am 06:53 Clear 64 17.8 63 17.2 96 96 Calm 29.91 1013 10 16.0934 0 0
7:53 am 07:53 Mostly Sunny 67 19.4 64 17.8 91 91 N 3 6 29.93 1014 10 16.0934 0 0
8:53 am 08:53 Sunny 69 20.6 64 17.8 84 84 N 5 7 29.93 1014 10 16.0934 0 0
9:53 am 09:53 Sunny 71 21.7 64 17.8 79 79 N 8 13 29.93 1013 10 16.0934 0 0
10:53 am 10:53 Sunny 74 23.3 63 17.2 69 69 NNE 8 13 29.93 1014 10 16.0934 0 0
12:53 pm 12:53 Partly Cloudy 80 26.7 64 17.8 58 58 ENE 8 13 29.91 1013 10 16.0934 0 0
1:53 pm 13:53 Sunny 80 26.7 61 16.1 52 52 VRB 6 9 29.89 1012 10 16.0934 0 0
2:53 pm 14:53 Sunny 82 27.8 59 15 46 46 Calm 29.88 1012 10 16.0934 0 0
3:53 pm 15:53 Mostly Sunny 83 28.3 58 14.4 43 43 VRB 5 7 29.86 1011 10 16.0934 0 0
4:53 pm 16:53 Sunny 84 28.9 55 12.8 37 37 NNE 5 7 29.85 1011 10 16.0934 0 0
5:53 pm 17:53 Sunny 84 28.9 57 13.9 40 40 N 7 11 29.84 1011 10 16.0934 0 0
6:53 pm 18:53 Partly Cloudy 83 28.3 58 14.4 43 43 NNE 6 9 29.84 1011 10 16.0934 0 0
7:53 pm 19:53 Sunny 69 20.6 62 16.7 78 78 N 3 6 29.86 1011 10 16.0934 0 0
8:53 pm 20:53 Clear 75 23.9 57 13.9 54 54 NNW 8 13 29.88 1012 10 16.0934 0 0
9:53 pm 21:53 Clear 69 20.6 58 14.4 68 68 NNW 3 6 29.89 1012 10 16.0934 0 0
10:53 pm 22:53 Clear 64 17.8 59 15 84 84 NW 3 6 29.89 1012 10 16.0934 0 0
11:53 pm 23:53 Clear 61 16.1 59 15 93 93 Calm 29.89 1012 10 16.0934 0 0

Powered by AerisWeather